Other Public Products
Issued by NWS Grand Forks, ND

Home | Current Version | Previous Version | Text Only | Print | Product List | Glossary On
Versions: 1 2 3 4 5 6 7 8 9 10 11 12 13 14 15 16 17 18 19 20 21 22 23 24 25 26 27 28 29 30 31 32 33 34 35 36 37 38 39 40 41 42 43 44 45 46 47 48 49 50
000
FPUS83 KFGF 230310
OPUFGF
PRAIRIE TO PINES WEATHER ROUNDUP
NATIONAL WEATHER SERVICE EASTERN NORTH DAKOTA/GRAND FORKS ND
1000 PM CDT TUE MAY 22 2018

 **SATELLITE DATA USED TO AUGMENT SKY COVER AT AUTOMATED STATIONS**
 *****  WEATHER ACROSS EASTERN NORTH DAKOTA  *****

CITY           SKY/WX    TMP DP  RH WIND       PRES   REMARKS
GRAND FORKS    FAIR      70  55  59 SE8       29.95R
GRND FORKS AFB FAIR      69  53  55 SE7       29.96R
GRND FORKS NWS   N/A     73  56  55 E6        29.93R
BUXTON           N/A     72  55  53 E9          N/A
DEVILS LAKE    FAIR      70  54  56 E8        29.96R
FARGO          FAIR      73  56  54 E13       29.96R
WAHPETON ARPT  FAIR      72  50  46 E8        29.98R
$$

 *****  WEATHER ACROSS CENTRAL AND WESTERN NORTH DAKOTA  *****

CITY           SKY/WX    TMP DP  RH WIND       PRES   REMARKS
JAMESTOWN      MOCLDY    70  57  63 E8        29.95R
BISMARCK       TSTM      66  60  81 NW8       29.96R
MINOT          CLOUDY    71  51  49 N6        29.93R
MINOT AFB      CLOUDY    72  52  49 NE8       29.91R
GARRISON         N/A     69  54  58 S10       29.94R
WILLISTON      MOCLDY    68  50  52 NE13      29.93R
DICKINSON      CLOUDY    66  55  67 S12       29.91R
HETTINGER      MOCLDY    63  50  62 E17       29.95R
$$

 *****  OTHER OBSERVATIONS NORTHEAST NORTH DAKOTA  *****

CITY           SKY/WX    TMP DP  RH WIND       PRES   REMARKS
WALHALLA       FAIR      68  55  64 SE6       29.95R
LANGDON        FAIR      66  52  59 SE9       29.98R
CAVALIER         N/A     73  54  49 SE5       29.95R
GRAFTON        FAIR      68  54  60 E10       29.98R
CANDO          FAIR      68  50  52 SE8       29.97R
FORT TOTTEN      N/A     72  51  48 E7        29.95S
ROLLA          FAIR      68  50  52 SE8       29.97R
RUGBY          NOT AVBL
 ***** THE ABOVE OBSERVATIONS ARE NON NWS ARE NOT QUALITY
        CONTROLLED AND MAY MIS-REPORT RAIN FOR SNOW...
$$

 *****  OTHER OBSERVATIONS SOUTHEAST NORTH DAKOTA *****

CITY           SKY/WX    TMP DP  RH WIND       PRES   REMARKS
COOPERSTOWN    FAIR      70  54  56 SE9       29.98R
VALLEY CITY    FAIR      72  54  53 SE8       29.97R
OAKES            N/A     68  54  60 E10       29.96R
GWINNER          N/A     68  52  56 SE7       29.96R
SHEYENNE NWR     N/A     64  54  68 E5        29.95S
BUFFALO          N/A     70  45  40 W9          N/A
WYNDMERE       NOT AVBL
 ***** THE ABOVE OBSERVATIONS ARE NON NWS ARE NOT QUALITY
       CONTROLLED AND MAY MIS-REPORT RAIN FOR SNOW...
$$

  *****  WEATHER ACROSS NORTHERN MINNESOTA  *****

CITY           SKY/WX    TMP DP  RH WIND       PRES   REMARKS
FLAG ISLAND    FAIR      64  52  63 CALM      30.00R
WARROAD        FAIR      64  54  68 CALM      30.02R
ROSEAU         FAIR      70  55  60 E6        30.01R
HALLOCK        FAIR      72  54  53 SE8       29.97R
THF RVR FALLS  FAIR      68  54  60 E6        30.01R
HALSTAD          N/A     68  54  59 SE7         N/A
FOSSTON        FAIR      63  45  51 CALM      30.02R
BAUDETTE       FAIR      65  52  62 CALM      30.02R
WASKISH          N/A     61  55  82 CALM      30.03R
CROOKSTON      FAIR      70  54  56 SE8       29.99R
$$
  *****  WEATHER ACROSS CENTRAL AND WEST MINNESOTA  *****

CITY           SKY/WX    TMP DP  RH WIND       PRES   REMARKS
BEMIDJI        FAIR      63  54  73 SE7       30.03R
PARK RAPIDS    FAIR      68  55  63 SE7       30.03R
WADENA         FAIR      63  54  72 SE6       30.03R
DETROIT LAKES  FAIR      68  54  60 SE8       30.03R
MOORHEAD       FAIR      72  55  56 E8        29.98R
FERGUS FALLS   FAIR      72  55  56 SE12      29.95R
ELBOW LAKE     FAIR      68  56  66 SE13      30.00R
MORRIS MN      FAIR      70  55  60 E14       29.99R
STAPLES        FAIR      63  54  72 CALM      30.05R
WHEATON        FAIR      72  54  53 E12       29.99R
$$
  *****  WEATHER ELSEWHERE ACROSS MINNESOTA  *****

CITY           SKY/WX    TMP DP  RH WIND       PRES   REMARKS
DULUTH         FAIR      64  53  67 W7        30.05R
INTRNTL FALLS  FAIR      55  49  80 CALM      30.01R
ELY            FAIR      61  46  59 CALM      30.03R
CLOQUET        FAIR      64  52  63 SW3       30.06R
BRAINERD       FAIR      64  54  69 CALM      30.05R
HIBBING        FAIR      60  52  74 CALM      30.04R
ALEXANDRIA     FAIR      68  55  63 E8        30.04R
SAINT CLOUD    FAIR      62  56  80 E6        30.03R
MINNEAPOLIS    FAIR      70  58  65 SE10      30.04R
$$

  *****  WEATHER ACROSS SOUTH DAKOTA  *****

CITY           SKY/WX    TMP DP  RH WIND       PRES   REMARKS
SIOUX FALLS    CLOUDY    73  64  73 SE8       29.96R
BROOKINGS      FAIR      72  62  71 SE9       29.98R
WATERTOWN      FAIR      73  58  59 SE6       29.96R
HURON          FAIR      71  63  75 SE6       29.92R
SISSETON         N/A     70  54  56 SE5       29.95R
ABERDEEN       FAIR      71  52  50 E7        29.94R
MITCHELL       FAIR      73  66  78 SE8       29.93R
PIERRE         FAIR      71  64  78 SE8       29.90R
MOBRIDGE       FAIR      70  60  70 SE6       29.91R
RAPID CITY     RAIN      59  57  93 SW7       30.02R
$$

  *****  SOME WEATHER IN NEARBY STATES *****

CITY           SKY/WX    TMP DP  RH WIND       PRES   REMARKS
GLASGOW MT     FAIR      72  49  44 E3        29.91R
GREAT FALLS MT FAIR      63  53  70 NW5       29.97S
CHEYENNE WY    LGT RAIN  57  52  83 SW10      30.02R
SCOTTSBLUFF NE FAIR      69  58  67 E8        29.88R
OMAHA NE       MOCLDY    77  63  61 SE9       29.96R
DES MOINES IA  FAIR      75  64  68 SE7       30.02R
DAVENPORT IA   FAIR      64  58  80 E7        30.09R
CHICAGO IL     FAIR      57  51  80 E5        30.09R
EAU CLAIRE WI  FAIR      60  56  86 CALM      30.07R
LA CROSSE WI   FAIR      61  57  87 SE5       30.08R
$$

  *****  SOME NATIONAL WEATHER *****

CITY           SKY/WX    TMP DP  RH WIND       PRES   REMARKS
LA GUARDIA NY  CLOUDY    58  55  90 E3        29.98F
RALEIGH NC     FAIR      75  68  78 SW12      30.08R
ATLANTA GA     CLOUDY    70  67  90 SE6       30.09R
NEW ORLEANS LA FAIR      82  73  74 SE6       30.01R
OKLAHOMA CITY  FAIR      72  65  78 SE7       29.99R
ALBUQUERQUE NM FAIR      74  15  10 S13       29.94R
SALT LAKE CITY MOCLDY    59  50  72 NE14      29.94S
LOS ANGELES CA FAIR      61  53  75 W13       29.91R
BOISE ID       FAIR      72  50  45 S9        29.83R
SEATTLE WA     FAIR      74  49  41 N8        29.82F
$$

*** WEATHER ACROSS MANITOBA...SASKATCHEWAN AND ONTARIO ***
                ***ONTARIO***

CITY           SKY/WX    TMP DP  RH WIND       PRES   REMARKS
GERALDTON      PTCLDY    55  41  58 NE13      30.05R
THUNDER BAY    PTCLDY    59  41  51 CALM      29.98R
SIOUX LOOKOUT  MOCLDY    55  41  58 CALM      30.00R
TORONTO        CLOUDY    59  57  94 N9        29.96R
BIG TROUT LK   CLEAR     37  28  70 E5        30.14S
PICKLE LAKE    NOT AVBL
DRYDEN         CLEAR     68  41  37 SW8       30.01R
KENORA         PTCLDY    70  43  37 S6        30.02R
$$
                *** MANITOBA***

CITY           SKY/WX    TMP DP  RH WIND       PRES   REMARKS
BRANDON        MOCLDY    68  46  45 NE5       29.93R
DAUPHIN        CLEAR     66  50  55 VRB2      29.93R
ISLAND LAKE    PTCLDY    54  36  50 E8        30.07R
PILOT MOUND      N/A     64  48  55 SE8         N/A
THE PAS        CLEAR     63  46  55 E3        30.00R
THOMPSON       PTCLDY    52  32  46 VRB2      30.05S
WINNIPEG       PTCLDY    70  52  52 SE9       29.96R
LYNN LAKE      CLEAR     59  39  47 S6        29.97S
CHURCHILL      MOCLDY    30  25  80 S16       30.11F WCI  19
GILLAM         PTCLDY    39  25  56 SE3       30.11F
$$
                ***SASKATCHEWAN***

CITY           SKY/WX    TMP DP  RH WIND       PRES   REMARKS
ESTEVAN        MOCLDY    59  52  77 NE9       29.93F
KINDERSLEY     PTCLDY    70  37  30 E9        29.92R
LLOYDMINSTER   PTCLDY    73  39  29 N3        29.92R
PRINCE ALBERT  MOCLDY    72  50  46 SE7       29.95R
REGINA         PTCLDY    64  52  63 E7        29.95R
YORKTON        CLOUDY    64  50  59 S3        29.95R


USA.gov is the U.S. government's official web portal to all federal, state and local government web resources and services.